User: anonymous   Login
Location: Caltech
(34.1382°N, 118.1253°W)
Time: 20:20:55
(UTC-07:00)
Language:

Cosmos 1975 - Orbit

View from above orbital plane
View from above orbital plane
View from above satellite
View from above satellite

Ground track
Ground track

The orbit data is extracted from the following two-line orbital elements,

1 19573U 88093A   16145.11661503  .00000374  00000-0  25124-4 0  9995
2 19573  82.5203   1.7711 0014611 176.7739 183.3584 15.03692691501333
Epoch (UTC): 24 May 2016 02:47:55
Eccentricity: 0.0014611
inclination: 82.5203°
perigee height: 545 km
apogee height: 565 km
right ascension of ascending node: 1.7711°
argument of perigee: 176.7739°
revolutions per day: 15.03692691
mean anomaly at epoch: 183.3584°
orbit number at epoch: 50133

The dashed part of the orbit path shows where the satellite is in the earth's shadow,  

DLR